Louisville Bowman, KY

7:03 AM EDT on June 23, 2017 (GMT -0400)
Bowman

Weather History for KLOU - August, 2014

Change the Weather History Date:

Thursday, August 7, 2014

  Actual Average Record
Temperature  
Mean Temperature 77 °F 78 °F  
Max Temperature 83 °F 87 °F 99 °F (2007)
Min Temperature 70 °F 69 °F 53 °F (1997)
Degree Days  
Heating Degree Days 0 0  
Month to date heating degree days 0 0  
Since 1 June heating degree days 0 3  
Since 1 July heating degree days 0 0  
Cooling Degree Days 12 13  
Month to date cooling degree days 75 91  
Year to date cooling degree days 1040 941  
Since 1 June cooling degree days 785 794  
Growing Degree Days 26 (Base 50)    
Moisture  
Dew Point 63 °F    
Average Humidity 66    
Maximum Humidity 84    
Minimum Humidity 47    
Precipitation  
Precipitation T in 0.11 in 1.83 in (2011)
Month to date precipitation T 0.85  
Year to date precipitation 24.86 29.08  
Sea Level Pressure  
Sea Level Pressure 30.02 in    
Wind  
Wind Speed 6 mph (East)    
Max Wind Speed 12 mph    
Max Gust Speed 17 mph    
Visibility 10 miles    
Events Rain    
T = Trace of Precipitation, MM = Missing Value Source: NWS Daily Summary

Daily Weather History Graph

Daily Weather History Graph

Search for Another Location

Airport or City:

Trip Planner

Search our weather history database for the weather conditions in past years. The results will help you decide how hot, cold, wet, or windy it might be!

Date:

Astronomy

Aug. 07, 2014 Rise Set
Actual Time 6:50 AM EDT 8:45 PM EDT
Civil Twilight 6:21 AM EDT 9:14 PM EDT
Nautical Twilight 5:46 AM EDT 9:49 PM EDT
Astronomical Twilight 5:08 AM EDT 10:27 PM EDT
Moon 6:01 PM EDT (8/7) 3:20 AM EDT (8/7)
Length of Visible Light 14h 53m
Length of Day
13h 55m
Waxing Gibbous, 86% of the Moon is Illuminated
Aug 7
Waxing Gibbous
Aug 10
Full
Aug 17
Last Quarter
Aug 25
New
Sep 2
First Quarter

Hourly Weather History & Observations

Time (EDT) Temp. Heat Index Dew Point Humidity Pressure Visibility Wind Dir Wind Speed Gust Speed Precip Events Conditions
12:53 AM 75.0 °F - 66.9 °F 76% 30.03 in 8.0 mi North 4.6 mph - N/A   Clear
1:53 AM 73.9 °F - 66.0 °F 76% 30.02 in 9.0 mi NNE 3.5 mph - N/A   Clear
2:53 AM 73.0 °F - 66.0 °F 79% 30.01 in 10.0 mi Calm Calm - N/A   Clear
3:53 AM 72.0 °F - 66.0 °F 81% 30.01 in 10.0 mi NNE 3.5 mph - N/A   Clear
4:53 AM 71.1 °F - 64.9 °F 81% 30.01 in 9.0 mi Calm Calm - N/A   Clear
5:53 AM 71.1 °F - 64.9 °F 81% 30.02 in 10.0 mi ENE 4.6 mph - N/A   Clear
6:53 AM 71.1 °F - 64.0 °F 78% 30.04 in 9.0 mi ENE 4.6 mph - N/A   Clear
7:53 AM 71.1 °F - 64.0 °F 78% 30.05 in 9.0 mi ENE 6.9 mph - N/A   Clear
8:53 AM 73.0 °F - 61.0 °F 66% 30.06 in 10.0 mi East 8.1 mph - N/A   Clear
9:53 AM 73.9 °F - 62.1 °F 66% 30.07 in 10.0 mi ESE 3.5 mph - N/A   Partly Cloudy
10:53 AM 75.0 °F - 63.0 °F 66% 30.06 in 10.0 mi Variable 6.9 mph - N/A   Clear
11:53 AM 77.0 °F - 63.0 °F 62% 30.06 in 10.0 mi East 4.6 mph - N/A   Clear
12:53 PM 79.0 °F - 64.0 °F 60% 30.06 in 10.0 mi ESE 6.9 mph - N/A   Clear
1:53 PM 80.1 °F 81.5 °F 63.0 °F 56% 30.04 in 10.0 mi Variable 5.8 mph - N/A   Clear
2:53 PM 81.0 °F 81.9 °F 62.1 °F 52% 30.03 in 10.0 mi ESE 6.9 mph - N/A   Clear
3:53 PM 81.0 °F 81.9 °F 62.1 °F 52% 30.01 in 10.0 mi SE 5.8 mph - N/A   Partly Cloudy
4:53 PM 82.0 °F 83.0 °F 62.1 °F 51% 30.00 in 10.0 mi East 5.8 mph - N/A   Clear
5:53 PM 82.9 °F 83.3 °F 61.0 °F 47% 29.98 in 10.0 mi East 5.8 mph - N/A   Clear
6:53 PM 81.0 °F 81.7 °F 61.0 °F 50% 29.98 in 10.0 mi ENE 8.1 mph - N/A   Clear
7:53 PM 79.0 °F - 62.1 °F 56% 29.98 in 10.0 mi ENE 8.1 mph - N/A   Clear
8:53 PM 78.1 °F - 61.0 °F 56% 29.99 in 10.0 mi East 9.2 mph - N/A   Clear
9:53 PM 77.0 °F - 59.0 °F 54% 29.99 in 10.0 mi East 10.4 mph - N/A   Clear
10:53 PM 75.9 °F - 59.0 °F 56% 30.00 in 10.0 mi East 10.4 mph - N/A   Partly Cloudy
11:53 PM 75.0 °F - 60.1 °F 60% 29.99 in 10.0 mi East 6.9 mph - 0.00 in Rain Light Rain